SCP
0 0 0 0 0 0 0 0 0 0 0 0 0 0 0 0 0 0 0 0 0 0 0 0 0 0 0 0 0 0 0 0 0 0 0 0 0 0 0 0 0 0 0 0
-0 0 0 0 0 0 0 0 0 0 0 0 0 0 0 0 0 0 0 0 0 0 0 0 0 0 0 0 0 0 0 0 0 0 0 0 0 0 0 0 0 0 0 0
-0 0 0 -0 -0 0 0 0 0 -0 0 0 0 -0 0 0 0 0 0 0 0 0 0 0 0 0 0 0 0 0 0 0 0 0 0 0 0 0 0 0 0 0 0 0
-0 0 0 0 0 0 0 0 0 0 0 0 0 0 0 0 0 0 0 0 0 0 0 0 0 0 0 0 0 0 0 0 0 0 0 0 0 0 0 0 0 0 0 0
0 -0 -0 -0 0 0 0 0 0 0 0 0 0 0 -0 0 -0 0 0 0 0 0 0 0 0 0 0 0 0 0 0 0 0 0 0 0 0 0 0 0 0 0 0 0
0 0 0 0 0 0 0 0 0 0 0 0 0 0 -0 -0 0 0 0 0 0 0 0 0 0 0 0 0 0 0 0 0 0 0 0 0 0 0 0 0 0 0 0 0
0 0 0 0 0 0 0 0 0 0 0 0 0 0 0 0 0 0 0 0 -0 0 0 0 0 0 0 0 0 0 0 0 0 0 0 0 0 0 0 0 0 0 0 0
0 0 0 0 0 0 0 0 0 0 0 0 0 0 0 0 0 0 0 0 0 0 0 0 0 0 0 0 0 0 0 0 0 0 0 0 0 0 0 0 0 0 0 0
0 0 0 0 0 0 0 0 0 0 0 0 0 0 0 0 0 0 0 0 0 0 0 0 0 0 0 0 0 0 0 0 0 0 0 0 0 0 0 0 0 0 0 0
0 0 0 0 0 0 0 0 0 0 0 0 0 0 0 0 0 0 0 0 -0 0 0 0 0 0 0 0 0 0 0 0 0 0 0 0 0 0 0 0 0 0 0 0
0 0 0 0 0 0 0 0 0 0 0 0 0 0 0 0 0 0 0 -0 0 0 0 0 0 0 0 0 0 0 0 0 0 0 0 0 0 0 0 0 0 0 0 0
0 0 0 0 0 0 0 0 0 0 0 0 0 0 0 0 0 0 -0 0 0 0 0 0 0 0 0 0 0 0 0 0 0 0 0 0 0 0 0 0 0 0 0 0
0 0 0 0 0 0 0 0 0 0 0 0 0 0 0 0 0 -0 0 0 0 0 0 0 0 0 0 0 0 0 0 0 0 0 0 0 0 0 0 0 0 0 0 0
0 0 0 0 0 0 0 0 0 0 0 0 0 0 0 0 0 0 0 0 0 0 0 0 0 0 0 0 0 0 0 0 0 0 0 0 0 0 0 0 0 0 0 0
0 0 0 0 0 0 0 0 0 0 0 0 0 0 0 0 0 0 0 0 0 0 0 0 0 0 0 0 0 0 0 0 0 0 0 0 0 0 0 0 0 0 0 0
0 0 0 0 0 0 0 0 0 0 0 0 0 0 0 0 0 0 0 0 0 0 0 0 -0 0 0 0 0 0 0 0 0 0 0 0 0 0 0 0 0 0 0 0
0 0 0 0 0 0 0 0 0 0 0 0 0 0 0 0 0 0 0 0 0 0 -0 0 0 0 0 0 0 0 0 0 0 0 0 0 0 0 0 0 0 0 0 0
0 0 0 0 0 0 0 0 0 0 0 0 0 0 0 0 0 0 0 0 -0 0 0 0 0 0 0 0 0 0 0 0 0 0 0 0 0 0 0 0 0 0 0 0
0 0 0 0 0 0 0 0 0 0 0 0 0 0 0 0 0 0 0 0 0 0 0 0 0 0 0 0 0 0 0 0 0 0 0 0 0 0 0 0 0 0 0 0
0 0 0 0 0 0 0 0 0 0 0 0 0 0 0 0 0 0 0 0 0 0 0 0 0 0 0 0 0 0 0 0 0 0 0 0 0 0 0 0 0 0 0 0
0 0 0 0 0 0 0 0 0 0 0 0 0 0 0 0 0 0 0 0 0 0 0 0 0 0 0 0 0 0 0 0 0 0 0 0 0 0 0 0 0 0 0 0
0 0 0 0 0 0 0 0 0 0 0 0 0 0 0 0 0 0 0 0 0 0 0 0 0 0 0 0 0 0 0 0 0 0 0 0 0 0 0 0 0 0 0 0
0 0 0 0 0 0 0 0 0 0 0 0 0 0 0 0 0 0 0 0 0 0 0 0 0 0 0 0 0 0 0 0 0 0 0 0 0 0 0 0 0 0 0 0
0 0 0 0 0 0 0 0 0 0 0 0 0 0 0 0 0 0 0 0 0 0 0 0 0 0 0 0 0 0 0 0 0 0 0 0 0 0 0 0 0 0 0 0
0 0 0 0 0 0 0 0 0 0 0 0 0 0 0 0 0 0 0 0 0 0 0 0 0 0 0 0 0 0 0 0 0 0 0 0 0 0 0 0 0 0 0 0
0 0 0 0 0 0 0 0 0 0 0 0 0 0 0 0 0 0 0 0 0 0 0 0 0 0 0 0 0 0 0 0 0 0 0 0 0 0 0 0 0 0 0 0
Wind_Speed_500mb
13 15 8 7 8 4 3 3 7 4 9 9 6 15 26 39 31 33 29 27 24 23 23 24 25 29 32 35 37 35 39 42 40 35 29 29 28 27 26 26 24 22 22 21
12 8 8 8 8 8 9 4 8 9 8 5 12 27 26 29 22 24 28 29 27 26 24 24 25 29 32 32 29 34 36 38 36 33 28 26 25 24 26 26 25 24 23 23
12 5 13 6 12 9 6 4 6 7 14 6 14 14 13 6 7 13 22 24 29 29 26 24 24 26 25 24 21 21 28 32 34 33 28 24 23 24 24 23 22 23 24 24
12 15 9 9 9 8 5 8 6 7 10 5 12 9 15 11 18 14 24 30 29 24 22 22 22 22 22 20 17 16 23 30 33 33 29 26 25 25 26 24 24 25 26 26
5 11 13 16 4 5 5 9 6 5 8 8 16 8 17 9 12 12 21 26 29 25 24 22 22 21 21 18 15 15 20 29 34 34 31 28 27 27 28 28 27 27 28 29
4 4 6 3 5 0 3 2 9 7 6 6 7 6 13 6 5 10 19 36 23 28 26 24 23 22 21 20 17 15 19 26 31 33 32 30 29 28 27 27 27 26 27 29
10 7 7 9 6 3 12 12 8 12 9 8 6 3 19 11 9 7 27 44 31 24 27 25 24 24 24 23 22 19 19 23 26 28 30 30 30 29 27 25 25 24 26 27
7 13 10 15 6 3 10 9 9 9 5 9 5 10 9 5 19 27 26 28 29 20 24 28 29 29 29 27 26 26 26 26 28 28 28 27 25 23 22 21 21 23 26 30
6 8 4 5 5 5 3 7 6 13 2 6 5 14 20 4 10 26 26 29 32 25 26 33 35 36 34 32 31 30 29 29 28 27 25 23 21 19 19 20 22 25 29 33
6 8 3 8 4 12 7 6 7 7 5 9 9 12 10 11 14 17 35 43 40 39 38 40 43 44 42 39 37 35 33 31 29 27 24 22 20 20 21 23 27 30 34 37
8 7 9 5 3 9 5 5 9 6 6 8 4 11 14 12 9 11 29 42 53 62 51 47 50 52 51 49 45 40 36 33 31 28 25 24 23 23 25 28 32 34 37 40
2 7 5 16 4 3 4 10 8 8 11 4 2 14 5 12 13 14 37 68 58 50 51 50 53 57 63 62 56 51 46 41 36 32 29 28 28 29 30 31 34 37 38 40
7 4 7 18 6 5 5 8 7 6 4 14 6 12 1 6 15 42 53 64 65 60 57 57 57 58 60 67 65 60 54 47 42 37 34 32 32 33 33 34 36 38 39 39
4 4 13 13 14 5 7 8 9 10 6 7 16 42 34 24 23 61 71 67 57 58 61 70 65 63 60 58 67 64 58 51 46 41 36 34 35 35 37 38 38 37 38 39
6 8 2 9 11 5 10 19 16 20 20 11 45 10 31 29 25 43 57 68 70 65 76 86 87 77 71 64 62 64 59 54 49 43 41 36 37 39 40 41 41 42 42 44
3 5 4 11 6 5 12 34 16 24 20 17 32 35 8 27 36 57 73 76 71 78 88 93 95 80 73 60 49 53 56 56 53 46 41 39 41 41 42 43 44 46 48 50
5 9 5 11 9 13 15 16 10 7 9 12 8 13 18 18 46 58 70 59 71 86 92 103 100 70 57 40 32 46 50 51 57 55 50 46 44 45 42 42 47 47 47 49
9 8 4 7 8 2 13 7 7 15 12 9 13 15 32 44 58 46 32 62 85 94 94 94 89 60 53 52 44 44 46 47 50 50 47 46 44 44 41 44 48 49 49 51
7 8 2 2 4 15 12 4 7 4 0 15 10 27 43 56 55 37 60 78 82 85 87 89 83 73 57 60 56 52 45 43 49 53 51 47 40 42 41 43 45 48 52 57
1 6 6 6 5 10 6 3 4 9 6 30 28 31 42 51 24 25 74 74 77 77 80 85 84 78 71 70 57 49 49 52 59 57 50 42 39 40 42 45 49 53 56 61
7 4 11 8 9 17 9 14 7 8 8 37 34 40 40 20 35 65 74 79 79 81 82 85 82 83 79 74 72 60 61 64 63 50 45 42 41 44 46 49 53 57 60 63
13 13 9 4 2 16 22 5 6 11 30 39 44 47 48 59 71 80 85 87 86 89 90 85 87 77 77 73 70 77 76 70 59 49 47 47 45 42 44 50 56 59 62 66
5 12 8 17 8 9 29 27 20 28 32 37 52 62 67 77 84 86 88 88 86 89 96 89 88 86 79 68 73 77 77 72 63 52 53 51 46 44 45 54 61 66 67 69
8 10 5 5 6 16 22 26 38 46 50 58 63 68 73 79 84 86 85 86 88 91 95 91 87 84 84 75 76 68 68 63 63 58 56 51 51 50 55 61 66 71 73 73
5 11 6 8 5 4 17 41 49 55 60 64 68 73 77 73 75 76 75 81 84 87 89 88 84 81 83 75 72 72 56 52 60 57 57 54 53 55 60 63 69 74 77 75
9 6 4 4 2 4 25 40 47 56 64 70 76 79 78 78 82 82 83 87 83 84 86 87 87 84 83 80 70 67 57 46 50 55 59 56 56 61 63 67 74 75 79 75
Wind_Direction_500mb
18 65 51 347 334 340 325 292 294 314 7 332 314 291 288 291 275 264 256 245 242 246 251 260 271 278 280 277 267 258 245 242 241 246 258 265 260 257 256 257 263 271 277 283
31 73 335 294 5 62 33 342 314 296 11 346 3 300 279 275 263 263 265 259 253 254 260 272 282 288 290 288 276 258 246 239 234 238 252 256 257 256 254 257 260 263 267 277
86 342 335 53 31 33 47 37 348 257 318 87 322 309 322 334 317 275 256 255 246 250 260 274 288 294 298 299 289 263 242 230 226 234 245 253 257 256 253 254 256 257 261 270
69 341 18 52 70 5 28 334 312 344 28 292 7 288 297 333 308 272 268 254 255 257 270 288 299 301 302 304 299 266 239 227 226 232 241 251 260 255 250 250 253 259 265 272
279 10 18 49 322 336 280 30 31 63 78 43 1 79 273 352 324 358 1 317 267 264 273 286 295 299 300 302 295 270 242 229 226 228 237 250 259 259 257 258 261 267 272 278
125 58 63 221 265 191 290 35 43 56 79 28 291 82 286 289 320 316 320 337 318 262 269 279 286 292 294 292 288 268 245 233 229 233 241 250 256 258 260 261 261 264 267 274
355 3 342 13 320 13 41 45 348 358 10 223 303 13 247 300 294 276 317 328 328 282 269 276 280 286 288 287 278 266 253 244 240 242 248 254 259 263 263 265 268 272 275 281
90 336 9 357 50 319 38 118 145 232 265 275 12 234 241 246 300 314 315 322 329 304 271 275 280 283 281 276 268 258 251 247 246 247 253 255 255 254 256 260 267 276 284 288
63 295 337 13 345 61 287 47 156 99 91 39 278 287 309 325 37 19 2 7 2 334 294 283 280 280 277 271 263 258 252 248 247 247 246 246 248 257 268 277 284 289 293 296
181 353 269 295 359 43 117 151 33 9 341 306 305 274 243 326 332 340 10 16 4 343 320 301 287 283 278 269 261 253 249 245 241 242 243 247 253 262 272 282 288 292 296 299
131 97 288 24 182 183 28 19 43 119 130 202 270 255 213 219 227 286 347 346 338 332 323 315 299 285 275 265 257 250 247 247 247 246 248 251 260 270 281 290 295 298 300 301
197 136 257 228 140 148 171 190 167 127 268 234 191 270 190 216 265 304 330 332 338 337 327 321 311 295 275 267 259 254 250 251 250 248 252 258 268 276 286 293 299 302 304 305
174 318 356 337 19 3 205 207 145 115 79 210 149 260 31 211 317 338 328 336 335 335 338 332 324 311 292 270 261 255 250 250 248 247 252 260 270 280 288 293 297 300 302 304
147 149 177 204 214 142 263 207 193 147 147 237 223 272 289 318 341 334 335 336 339 340 342 344 331 320 307 283 260 254 250 248 245 247 254 265 273 282 288 290 293 298 301 302
120 201 280 260 238 219 253 254 204 199 229 215 276 258 286 317 317 324 332 340 336 339 340 336 331 316 307 291 262 250 248 244 242 248 257 267 276 282 288 292 293 296 298 299
44 239 109 294 341 298 268 266 239 233 251 259 279 282 323 329 343 340 337 335 339 339 335 333 331 319 311 297 266 252 250 244 243 251 263 273 280 284 287 286 286 289 293 296
103 128 77 262 343 329 303 247 173 202 216 164 223 248 311 337 343 334 325 340 338 334 335 333 328 317 314 308 269 258 257 252 250 257 269 272 279 283 284 282 282 289 294 296
130 96 101 270 5 51 242 153 147 206 258 227 301 299 324 323 324 324 348 339 335 331 328 326 324 315 319 312 283 266 261 256 253 258 267 274 277 277 277 277 282 291 295 295
165 121 44 161 226 297 298 165 136 165 347 9 294 325 329 330 330 326 338 330 325 322 319 317 318 312 306 306 295 265 258 266 267 269 274 278 272 273 279 284 290 292 294 295
92 74 125 78 148 255 249 125 118 128 252 4 357 343 337 344 334 323 330 336 336 334 330 325 318 313 302 303 290 265 273 279 278 274 274 271 274 281 287 293 294 296 295 296
143 198 222 197 245 282 278 304 233 85 309 352 352 343 334 321 301 308 328 331 331 331 331 330 328 315 310 297 286 276 286 294 291 277 270 271 277 285 290 296 299 301 300 297
173 159 207 128 234 278 352 41 90 347 348 347 342 337 321 322 323 326 325 324 323 322 323 321 323 327 313 314 294 280 280 289 289 272 269 274 281 286 296 301 303 302 300 299
283 201 181 186 216 41 67 85 27 1 340 331 329 333 329 323 320 319 318 318 318 318 317 311 314 318 319 316 306 291 279 281 285 271 269 275 279 285 296 303 305 304 302 302
240 196 209 70 53 115 68 25 1 351 338 333 330 324 319 315 316 312 316 321 322 325 323 321 324 320 315 313 314 303 302 295 279 269 269 274 280 292 300 302 304 305 304 305
219 152 177 264 16 163 342 350 343 337 333 328 322 317 315 318 315 314 314 320 323 324 324 326 327 323 319 322 316 308 303 294 278 269 268 274 282 292 298 300 306 307 304 304
190 196 171 213 51 241 314 330 330 326 324 323 324 322 321 322 323 327 325 325 324 325 328 328 326 326 324 324 320 316 309 303 288 274 268 275 284 289 294 299 305 307 303 300
Wind_Speed_850mb
13 15 8 7 8 4 3 3 7 4 9 9 6 15 26 39 31 33 29 27 24 23 23 24 25 29 32 35 37 35 39 42 40 35 29 29 28 27 26 26 24 22 22 21
12 8 8 8 8 8 9 4 8 9 8 5 12 27 26 29 22 24 28 29 27 26 24 24 25 29 32 32 29 34 36 38 36 33 28 26 25 24 26 26 25 24 23 23
12 5 13 6 12 9 6 4 6 7 14 6 14 14 13 6 7 13 22 24 29 29 26 24 24 26 25 24 21 21 28 32 34 33 28 24 23 24 24 23 22 23 24 24
12 15 9 9 9 8 5 8 6 7 10 5 12 9 15 11 18 14 24 30 29 24 22 22 22 22 22 20 17 16 23 30 33 33 29 26 25 25 26 24 24 25 26 26
5 11 13 16 4 5 5 9 6 5 8 8 16 8 17 9 12 12 21 26 29 25 24 22 22 21 21 18 15 15 20 29 34 34 31 28 27 27 28 28 27 27 28 29
4 4 6 3 5 0 3 2 9 7 6 6 7 6 13 6 5 10 19 36 23 28 26 24 23 22 21 20 17 15 19 26 31 33 32 30 29 28 27 27 27 26 27 29
10 7 7 9 6 3 12 12 8 12 9 8 6 3 19 11 9 7 27 44 31 24 27 25 24 24 24 23 22 19 19 23 26 28 30 30 30 29 27 25 25 24 26 27
7 13 10 15 6 3 10 9 9 9 5 9 5 10 9 5 19 27 26 28 29 20 24 28 29 29 29 27 26 26 26 26 28 28 28 27 25 23 22 21 21 23 26 30
6 8 4 5 5 5 3 7 6 13 2 6 5 14 20 4 10 26 26 29 32 25 26 33 35 36 34 32 31 30 29 29 28 27 25 23 21 19 19 20 22 25 29 33
6 8 3 8 4 12 7 6 7 7 5 9 9 12 10 11 14 17 35 43 40 39 38 40 43 44 42 39 37 35 33 31 29 27 24 22 20 20 21 23 27 30 34 37
8 7 9 5 3 9 5 5 9 6 6 8 4 11 14 12 9 11 29 42 53 62 51 47 50 52 51 49 45 40 36 33 31 28 25 24 23 23 25 28 32 34 37 40
2 7 5 16 4 3 4 10 8 8 11 4 2 14 5 12 13 14 37 68 58 50 51 50 53 57 63 62 56 51 46 41 36 32 29 28 28 29 30 31 34 37 38 40
7 4 7 18 6 5 5 8 7 6 4 14 6 12 1 6 15 42 53 64 65 60 57 57 57 58 60 67 65 60 54 47 42 37 34 32 32 33 33 34 36 38 39 39
4 4 13 13 14 5 7 8 9 10 6 7 16 42 34 24 23 61 71 67 57 58 61 70 65 63 60 58 67 64 58 51 46 41 36 34 35 35 37 38 38 37 38 39
6 8 2 9 11 5 10 19 16 20 20 11 45 10 31 29 25 43 57 68 70 65 76 86 87 77 71 64 62 64 59 54 49 43 41 36 37 39 40 41 41 42 42 44
3 5 4 11 6 5 12 34 16 24 20 17 32 35 8 27 36 57 73 76 71 78 88 93 95 80 73 60 49 53 56 56 53 46 41 39 41 41 42 43 44 46 48 50
5 9 5 11 9 13 15 16 10 7 9 12 8 13 18 18 46 58 70 59 71 86 92 103 100 70 57 40 32 46 50 51 57 55 50 46 44 45 42 42 47 47 47 49
9 8 4 7 8 2 13 7 7 15 12 9 13 15 32 44 58 46 32 62 85 94 94 94 89 60 53 52 44 44 46 47 50 50 47 46 44 44 41 44 48 49 49 51
7 8 2 2 4 15 12 4 7 4 0 15 10 27 43 56 55 37 60 78 82 85 87 89 83 73 57 60 56 52 45 43 49 53 51 47 40 42 41 43 45 48 52 57
1 6 6 6 5 10 6 3 4 9 6 30 28 31 42 51 24 25 74 74 77 77 80 85 84 78 71 70 57 49 49 52 59 57 50 42 39 40 42 45 49 53 56 61
7 4 11 8 9 17 9 14 7 8 8 37 34 40 40 20 35 65 74 79 79 81 82 85 82 83 79 74 72 60 61 64 63 50 45 42 41 44 46 49 53 57 60 63
13 13 9 4 2 16 22 5 6 11 30 39 44 47 48 59 71 80 85 87 86 89 90 85 87 77 77 73 70 77 76 70 59 49 47 47 45 42 44 50 56 59 62 66
5 12 8 17 8 9 29 27 20 28 32 37 52 62 67 77 84 86 88 88 86 89 96 89 88 86 79 68 73 77 77 72 63 52 53 51 46 44 45 54 61 66 67 69
8 10 5 5 6 16 22 26 38 46 50 58 63 68 73 79 84 86 85 86 88 91 95 91 87 84 84 75 76 68 68 63 63 58 56 51 51 50 55 61 66 71 73 73
5 11 6 8 5 4 17 41 49 55 60 64 68 73 77 73 75 76 75 81 84 87 89 88 84 81 83 75 72 72 56 52 60 57 57 54 53 55 60 63 69 74 77 75
9 6 4 4 2 4 25 40 47 56 64 70 76 79 78 78 82 82 83 87 83 84 86 87 87 84 83 80 70 67 57 46 50 55 59 56 56 61 63 67 74 75 79 75
Wind_Direction_850mb
18 65 51 347 334 340 325 292 294 314 7 332 314 291 288 291 275 264 256 245 242 246 251 260 271 278 280 277 267 258 245 242 241 246 258 265 260 257 256 257 263 271 277 283
31 73 335 294 5 62 33 342 314 296 11 346 3 300 279 275 263 263 265 259 253 254 260 272 282 288 290 288 276 258 246 239 234 238 252 256 257 256 254 257 260 263 267 277
86 342 335 53 31 33 47 37 348 257 318 87 322 309 322 334 317 275 256 255 246 250 260 274 288 294 298 299 289 263 242 230 226 234 245 253 257 256 253 254 256 257 261 270
69 341 18 52 70 5 28 334 312 344 28 292 7 288 297 333 308 272 268 254 255 257 270 288 299 301 302 304 299 266 239 227 226 232 241 251 260 255 250 250 253 259 265 272
279 10 18 49 322 336 280 30 31 63 78 43 1 79 273 352 324 358 1 317 267 264 273 286 295 299 300 302 295 270 242 229 226 228 237 250 259 259 257 258 261 267 272 278
125 58 63 221 265 191 290 35 43 56 79 28 291 82 286 289 320 316 320 337 318 262 269 279 286 292 294 292 288 268 245 233 229 233 241 250 256 258 260 261 261 264 267 274
355 3 342 13 320 13 41 45 348 358 10 223 303 13 247 300 294 276 317 328 328 282 269 276 280 286 288 287 278 266 253 244 240 242 248 254 259 263 263 265 268 272 275 281
90 336 9 357 50 319 38 118 145 232 265 275 12 234 241 246 300 314 315 322 329 304 271 275 280 283 281 276 268 258 251 247 246 247 253 255 255 254 256 260 267 276 284 288
63 295 337 13 345 61 287 47 156 99 91 39 278 287 309 325 37 19 2 7 2 334 294 283 280 280 277 271 263 258 252 248 247 247 246 246 248 257 268 277 284 289 293 296
181 353 269 295 359 43 117 151 33 9 341 306 305 274 243 326 332 340 10 16 4 343 320 301 287 283 278 269 261 253 249 245 241 242 243 247 253 262 272 282 288 292 296 299
131 97 288 24 182 183 28 19 43 119 130 202 270 255 213 219 227 286 347 346 338 332 323 315 299 285 275 265 257 250 247 247 247 246 248 251 260 270 281 290 295 298 300 301
197 136 257 228 140 148 171 190 167 127 268 234 191 270 190 216 265 304 330 332 338 337 327 321 311 295 275 267 259 254 250 251 250 248 252 258 268 276 286 293 299 302 304 305
174 318 356 337 19 3 205 207 145 115 79 210 149 260 31 211 317 338 328 336 335 335 338 332 324 311 292 270 261 255 250 250 248 247 252 260 270 280 288 293 297 300 302 304
147 149 177 204 214 142 263 207 193 147 147 237 223 272 289 318 341 334 335 336 339 340 342 344 331 320 307 283 260 254 250 248 245 247 254 265 273 282 288 290 293 298 301 302
120 201 280 260 238 219 253 254 204 199 229 215 276 258 286 317 317 324 332 340 336 339 340 336 331 316 307 291 262 250 248 244 242 248 257 267 276 282 288 292 293 296 298 299
44 239 109 294 341 298 268 266 239 233 251 259 279 282 323 329 343 340 337 335 339 339 335 333 331 319 311 297 266 252 250 244 243 251 263 273 280 284 287 286 286 289 293 296
103 128 77 262 343 329 303 247 173 202 216 164 223 248 311 337 343 334 325 340 338 334 335 333 328 317 314 308 269 258 257 252 250 257 269 272 279 283 284 282 282 289 294 296
130 96 101 270 5 51 242 153 147 206 258 227 301 299 324 323 324 324 348 339 335 331 328 326 324 315 319 312 283 266 261 256 253 258 267 274 277 277 277 277 282 291 295 295
165 121 44 161 226 297 298 165 136 165 347 9 294 325 329 330 330 326 338 330 325 322 319 317 318 312 306 306 295 265 258 266 267 269 274 278 272 273 279 284 290 292 294 295
92 74 125 78 148 255 249 125 118 128 252 4 357 343 337 344 334 323 330 336 336 334 330 325 318 313 302 303 290 265 273 279 278 274 274 271 274 281 287 293 294 296 295 296
143 198 222 197 245 282 278 304 233 85 309 352 352 343 334 321 301 308 328 331 331 331 331 330 328 315 310 297 286 276 286 294 291 277 270 271 277 285 290 296 299 301 300 297
173 159 207 128 234 278 352 41 90 347 348 347 342 337 321 322 323 326 325 324 323 322 323 321 323 327 313 314 294 280 280 289 289 272 269 274 281 286 296 301 303 302 300 299
283 201 181 186 216 41 67 85 27 1 340 331 329 333 329 323 320 319 318 318 318 318 317 311 314 318 319 316 306 291 279 281 285 271 269 275 279 285 296 303 305 304 302 302
240 196 209 70 53 115 68 25 1 351 338 333 330 324 319 315 316 312 316 321 322 325 323 321 324 320 315 313 314 303 302 295 279 269 269 274 280 292 300 302 304 305 304 305
219 152 177 264 16 163 342 350 343 337 333 328 322 317 315 318 315 314 314 320 323 324 324 326 327 323 319 322 316 308 303 294 278 269 268 274 282 292 298 300 306 307 304 304
190 196 171 213 51 241 314 330 330 326 324 323 324 322 321 322 323 327 325 325 324 325 328 328 326 326 324 324 320 316 309 303 288 274 268 275 284 289 294 299 305 307 303 300